Location: Aulus
(42.7909°N, 1.3399°E)
Time: 06:15:26
(UTC+00:00)

deb Kosmos- 1980 - Pass Details

Date: 20 October 2025
Orbit: 834 x 854 km, 71.0° (Epoch: 17 November)

Event Time Altitude Azimuth Distance (km) Brightness Sun altitude
Rises 20:41:19 0° 325° (NW) 3,396 ? -39.8°
Reaches altitude 10° 20:44:04 10° 314° (NW) 2,455 ? -40.2°
Enters shadow 20:46:39 22° 291° (WNW) 1,753 ? -40.7°
